Date,TemperatureHighF,TemperatureAvgF,TemperatureLowF,DewpointHighF,DewpointAvgF,DewpointLowF,HumidityHigh,HumidityAvg,HumidityLow,PressureMaxIn,PressureMinIn,WindSpeedMaxMPH,WindSpeedAvgMPH,GustSpeedMaxMPH,PrecipitationSumIn
2013-1-31,53,32,23,52,27,14,97,79,65,29.86,29.15,13,6,21,0.26
2013-2-1,23,19,17,19,13,9,92,76,65,30.40,29.86,12,6,18,0.00
2013-2-2,21,17,12,16,11,6,90,79,66,30.40,30.19,6,2,17,0.00
2013-2-3,26,18,6,21,15,4,95,88,71,30.19,29.96,5,1,17,0.00
2013-2-4,21,17,12,15,12,8,92,81,66,30.15,30.05,8,2,17,0.00
2013-2-5,28,21,16,20,17,14,93,85,69,30.15,30.03,2,0,17,0.03
2013-2-6,27,22,7,24,17,4,93,80,65,30.58,30.08,11,3,17,0.00
2013-2-7,32,21,5,20,14,3,93,73,58,30.67,30.35,9,3,17,0.00
2013-2-8,35,30,20,31,27,18,98,88,65,30.34,29.95,13,5,18,0.01
2013-2-9,21,17,8,19,14,6,95,90,85,30.63,30.12,11,6,17,0.00
2013-2-10,35,20,-1,19,10,-4,93,69,45,30.66,30.27,9,3,17,0.00
2013-2-11,45,37,34,39,30,18,93,77,51,30.27,29.78,9,5,18,0.07
2013-2-12,36,33,30,29,26,23,82,76,70,30.15,29.88,10,5,20,0.00
2013-2-13,38,31,27,26,24,22,85,75,61,30.10,29.88,4,1,17,0.00
2013-2-14,42,32,22,33,27,19,95,81,52,30.12,29.95,6,2,10,0.02
2013-2-15,40,35,28,33,27,21,91,74,55,30.20,29.98,7,3,12,0.00
2013-2-16,28,23,17,22,16,14,92,77,66,30.21,30.08,6,2,8,0.00
2013-2-17,19,15,11,15,9,4,90,78,66,30.33,30.05,14,6,21,0.00
2013-2-18,30,20,11,16,10,6,83,66,47,30.49,30.21,11,4,21,0.00
2013-2-19,38,33,25,34,26,16,95,74,52,30.21,29.77,11,5,21,0.01
2013-2-20,25,21,18,17,14,12,90,74,67,30.24,29.94,11,6,21,0.00
2013-2-21,20,18,14,18,14,10,92,85,77,30.62,30.19,11,5,21,0.00
2013-2-22,34,27,20,26,22,18,92,80,65,30.60,30.26,11,4,21,0.00
2013-2-23,39,35,31,36,32,25,97,88,75,30.27,30.02,8,3,21,0.02
2013-2-24,31,30,29,30,26,24,95,86,77,30.21,30.01,7,3,21,0.00
2013-2-25,36,32,23,29,27,22,94,82,71,30.41,30.21,8,4,21,0.00
2013-2-26,42,31,19,32,26,18,98,83,57,30.42,30.05,8,3,21,0.11
2013-2-27,35,34,32,35,33,32,99,98,97,30.05,29.72,2,0,21,0.60
2013-2-28,38,34,32,35,33,31,99,94,78,29.85,29.72,7,1,21,0.36
2013-3-1,32,29,25,31,27,22,97,92,87,30.07,29.85,9,5,21,0.01
2013-3-2,26,24,22,24,21,20,94,90,84,30.08,30.02,9,5,21,0.00
2013-3-3,24,22,20,21,19,18,94,88,78,30.07,30.00,8,4,21,0.00
2013-3-4,29,25,21,23,20,17,89,80,68,30.20,30.06,11,7,21,0.00
2013-3-5,31,25,16,24,21,15,94,84,74,30.28,30.16,6,2,21,0.01
2013-3-6,40,31,16,32,26,14,97,82,70,30.30,30.14,6,2,21,0.06
2013-3-7,37,33,29,28,26,24,86,74,64,30.41,30.29,7,3,21,0.01
2013-3-8,36,30,24,27,25,21,95,81,64,30.56,30.38,9,4,21,0.04
2013-3-9,42,30,19,32,24,18,99,82,47,30.60,30.46,4,1,21,0.00
2013-3-10,57,45,25,29,26,22,95,52,29,30.46,30.24,8,4,21,0.00
2013-3-11,54,50,45,46,32,24,78,50,37,30.24,29.90,10,5,22,0.00
2013-3-12,54,43,35,49,40,31,98,89,78,30.07,29.86,10,4,22,0.28
2013-3-13,38,33,25,31,26,16,91,76,57,30.10,29.98,11,4,21,0.00
2013-3-14,31,25,18,19,13,8,88,63,39,30.22,30.08,15,10,25,0.00
2013-3-15,35,28,18,30,22,14,88,77,64,30.22,29.91,9,3,21,0.01
2013-3-16,31,26,18,24,20,15,89,78,70,30.15,29.98,7,2,12,0.00
2013-3-17,28,22,14,24,18,13,95,84,68,30.53,30.15,7,2,12,0.01
2013-3-18,32,25,12,26,19,10,94,79,47,30.55,30.05,10,5,18,0.00
2013-3-19,42,32,26,34,28,20,97,85,64,30.03,29.84,9,4,15,0.12
2013-3-20,34,27,22,25,20,16,92,75,59,30.02,29.96,9,3,14,0.02
2013-3-21,29,24,15,23,16,11,93,73,49,30.02,29.90,8,2,12,0.00
2013-3-22,31,28,24,25,23,20,91,82,74,30.09,29.91,10,5,21,0.01
2013-3-23,35,31,28,26,24,22,88,76,62,30.17,30.06,10,6,21,0.00
2013-3-24,38,32,27,26,24,23,90,75,59,30.16,29.90,7,3,21,0.00
2013-3-25,41,34,28,30,27,24,91,77,55,29.89,29.73,7,2,21,0.00
2013-3-26,42,35,27,33,29,24,92,78,61,30.09,29.85,6,2,21,0.00
2013-3-27,44,36,29,34,30,26,95,80,51,30.21,30.06,11,3,21,0.04
2013-3-28,41,36,32,35,32,30,96,84,67,30.36,30.18,8,5,21,0.03
2013-3-29,45,38,32,36,32,29,91,79,67,30.36,30.28,8,2,21,0.00
2013-3-30,49,37,25,32,27,21,98,71,33,30.37,30.25,6,2,21,0.00
2013-3-31,53,40,27,42,33,24,98,79,47,30.26,29.83,9,2,21,0.32
2013-4-1,42,36,25,41,30,18,98,80,46,30.11,29.74,13,5,21,0.03
2013-4-2,33,28,22,22,18,14,86,66,47,30.29,30.10,12,6,21,0.00
2013-4-3,33,29,25,23,19,16,84,66,51,30.56,30.27,11,7,21,0.00
2013-4-4,53,36,18,26,20,16,94,58,27,30.55,30.12,6,2,21,0.00
2013-4-5,45,38,30,30,22,16,71,54,39,30.29,30.04,11,5,21,0.00
2013-4-6,46,35,25,21,18,12,82,53,27,30.51,30.28,8,3,21,0.00
2013-4-7,67,52,43,46,31,17,77,45,32,30.29,29.94,11,6,21,0.00
2013-4-8,64,51,37,48,38,34,89,64,42,30.27,29.98,5,2,21,0.00
2013-4-9,64,56,47,51,46,42,96,69,53,30.24,29.96,10,3,21,0.24
2013-4-10,49,46,40,48,46,40,100,99,96,30.15,29.97,7,2,21,0.46
2013-4-11,40,36,33,40,35,31,100,95,84,30.26,30.09,6,3,21,0.03
2013-4-12,49,42,36,46,40,36,100,95,88,30.13,29.77,10,5,21,0.25
2013-4-13,46,41,36,40,36,34,99,86,64,30.11,29.95,7,1,21,0.02
2013-4-14,47,39,32,36,32,28,93,75,53,30.38,30.11,8,2,21,0.02
2013-4-15,67,51,30,48,40,29,96,68,48,30.39,30.26,8,4,21,0.00
2013-4-16,64,56,46,58,51,42,98,83,69,30.35,30.14,10,5,21,0.31
2013-4-17,54,45,37,42,36,32,88,70,49,30.49,30.35,6,2,21,0.00
2013-4-18,66,56,36,57,47,33,95,73,50,30.41,30.01,13,7,22,0.00
2013-4-19,73,60,42,62,54,38,93,80,65,30.01,29.54,12,6,21,0.55
2013-4-20,44,39,31,38,30,22,91,70,48,30.57,29.88,11,5,21,0.01
2013-4-21,45,35,28,28,25,21,86,69,48,30.84,30.57,6,3,21,0.00
2013-4-22,57,43,27,31,26,24,93,55,28,30.80,30.57,8,3,21,0.00
2013-4-23,59,47,34,40,32,24,76,57,40,30.58,30.20,8,4,21,0.00
2013-4-24,68,53,41,55,46,35,91,77,55,30.19,29.80,12,4,21,0.15
2013-4-25,57,45,35,39,32,28,85,63,36,30.47,30.14,11,3,21,0.00
2013-4-26,54,44,33,40,34,28,99,72,42,30.64,30.47,7,2,21,0.06
2013-4-27,68,50,30,45,34,28,98,63,30,30.62,30.42,4,1,21,0.00
2013-4-28,71,56,37,47,40,35,95,61,27,30.42,30.22,10,3,21,0.08
2013-4-29,57,53,49,52,48,40,93,81,68,30.26,30.18,9,5,21,0.03
2013-4-30,66,58,53,55,52,49,92,81,62,30.40,30.25,6,3,21,0.00
2013-5-1,74,62,49,49,38,27,89,48,21,30.53,30.40,8,3,16,0.00
2013-5-2,69,53,42,46,39,35,84,61,37,30.58,30.50,5,1,14,0.00
2013-5-3,74,65,51,47,44,39,83,48,33,30.49,30.37,7,3,11,0.00
2013-5-4,75,59,41,54,42,36,89,55,29,30.44,30.29,5,2,11,0.00
2013-5-5,76,61,44,51,42,34,92,56,22,30.36,30.22,6,2,10,0.00
2013-5-6,75,59,40,49,41,34,92,57,23,30.33,30.18,5,2,9,0.00
2013-5-7,78,63,45,57,50,43,98,67,31,30.27,30.14,6,1,10,0.00
2013-5-8,68,60,53,60,56,51,98,87,68,30.19,30.06,5,1,14,0.15
2013-5-9,70,58,48,59,53,47,100,86,61,30.11,30.03,5,1,7,0.01
2013-5-10,72,61,48,60,55,47,100,81,56,30.11,29.90,7,2,18,0.23
2013-5-11,63,59,51,60,55,48,99,88,71,29.90,29.81,8,2,11,0.12
2013-5-12,53,47,40,48,37,28,96,69,43,30.08,29.83,11,4,18,0.00
2013-5-13,48,41,35,35,31,28,85,68,48,30.30,30.08,9,4,15,0.00
2013-5-14,56,42,29,39,32,28,97,70,38,30.34,30.17,6,2,13,0.00
2013-5-15,82,58,37,62,46,35,92,67,35,30.17,29.70,11,4,22,0.02
2013-5-16,76,63,52,51,44,38,86,55,26,30.09,29.87,12,4,23,0.00
2013-5-17,63,52,39,45,41,36,96,68,39,30.38,30.10,5,2,9,0.00
2013-5-18,70,54,38,52,46,37,99,75,51,30.43,30.33,5,2,12,0.00
2013-5-19,69,61,55,61,56,51,91,85,73,30.35,30.20,7,4,13,0.00
2013-5-20,84,71,61,66,62,58,94,75,53,30.22,30.01,4,1,8,0.00
2013-5-21,88,75,63,72,66,61,97,76,47,30.05,29.85,7,1,11,0.46
2013-5-22,87,73,61,72,66,60,100,81,46,29.96,29.81,5,1,11,0.02
2013-5-23,79,67,53,66,62,52,98,83,59,29.91,29.82,8,2,14,0.17
2013-5-24,52,42,38,51,40,37,98,95,84,30.31,29.91,10,6,15,0.11
2013-5-25,54,47,40,41,38,35,85,70,50,30.32,30.26,10,6,20,0.00
2013-5-26,59,50,43,40,37,31,83,62,38,30.36,30.23,12,5,17,0.00
2013-5-27,68,53,36,48,40,34,98,66,33,30.43,30.30,5,1,8,0.00
2013-5-28,59,53,45,57,51,43,99,92,71,30.34,30.17,6,2,12,0.46
2013-5-29,83,69,57,71,65,57,100,88,59,30.17,30.06,5,1,12,0.17
2013-5-30,86,73,62,73,66,61,100,80,52,30.25,30.17,5,1,10,0.01
2013-5-31,90,76,64,71,66,62,97,72,40,30.22,30.06,4,1,7,0.00
2013-6-1,88,75,61,71,66,60,98,76,52,30.08,29.92,4,1,14,0.00
2013-6-2,82,72,62,70,65,56,96,79,53,29.96,29.83,6,1,10,0.06
2013-6-3,65,56,48,58,50,45,93,80,51,30.15,29.96,6,2,11,0.00
2013-6-4,66,55,43,46,42,35,96,66,32,30.32,30.15,8,3,12,0.00
2013-6-5,71,56,40,52,46,39,99,72,36,30.37,30.22,4,1,8,0.00
2013-6-6,58,55,50,58,54,49,98,95,80,30.23,30.02,5,2,10,0.70
2013-6-7,63,60,58,62,60,57,100,97,94,30.02,29.90,4,2,9,0.18
2013-6-8,65,59,56,61,58,56,100,95,83,30.23,29.90,5,2,9,0.02
2013-6-9,73,62,51,60,56,51,100,82,55,30.34,30.23,3,1,7,0.00
2013-6-10,66,61,54,64,60,54,99,95,83,30.29,29.88,6,2,9,0.22
2013-6-11,67,63,60,65,62,57,100,94,86,29.93,29.78,7,3,9,0.11
2013-6-12,72,62,55,59,56,54,97,82,59,30.07,29.94,6,2,8,0.00
2013-6-13,62,59,56,60,58,55,99,95,82,29.95,29.62,5,2,11,0.34
2013-6-14,70,61,53,60,57,52,100,87,64,30.09,29.88,9,3,15,0.00
2013-6-15,73,62,49,57,52,45,100,74,38,30.19,30.09,7,2,12,0.00
2013-6-16,72,65,54,66,59,51,94,82,68,30.12,29.84,5,2,12,0.00
2013-6-17,79,67,57,66,61,55,99,82,43,30.06,29.97,7,2,12,0.04
2013-6-18,66,60,54,60,55,47,100,86,53,30.15,30.01,6,2,13,0.00
2013-6-19,66,56,46,51,47,42,99,73,46,30.35,30.15,4,1,12,0.00
2013-6-20,78,61,42,58,50,41,99,71,43,30.40,30.33,5,1,12,0.00
2013-6-21,82,67,49,67,57,48,98,74,50,30.41,30.31,4,1,12,0.00
2013-6-22,86,74,63,69,65,61,93,75,50,30.32,30.15,3,1,12,0.00
2013-6-23,92,76,69,74,70,66,98,83,49,30.21,30.11,4,1,11,0.82
2013-6-24,86,75,67,74,69,64,98,84,62,30.17,30.07,5,1,8,0.05
2013-6-25,83,75,65,73,68,64,96,79,62,30.10,29.92,7,2,11,0.00
2013-6-26,83,73,67,70,67,64,96,82,61,29.96,29.90,5,1,8,0.00
2013-6-27,81,71,62,72,67,62,100,90,69,29.94,29.72,4,0,8,0.37
2013-6-28,70,66,63,68,65,62,100,97,90,29.72,29.59,5,1,8,0.16
2013-6-29,73,66,62,69,65,62,100,95,79,29.83,29.62,4,1,9,0.24
2013-6-30,78,68,57,69,64,57,100,89,69,30.04,29.83,4,1,8,0.00
2013-7-1,68,66,65,68,66,63,100,98,91,30.14,30.02,4,1,8,0.52
2013-7-2,84,71,62,75,69,62,100,94,72,30.23,30.14,4,1,8,0.04
2013-7-3,86,76,67,75,71,66,100,85,62,30.29,30.21,3,1,8,0.00
2013-7-4,88,78,71,75,73,70,98,85,61,30.30,30.22,3,1,8,0.00
2013-7-5,88,78,68,77,72,68,100,84,60,30.27,30.16,6,1,7,0.03
2013-7-6,84,75,67,74,70,66,100,85,64,30.26,30.14,5,1,5,0.00
2013-7-7,87,77,71,74,72,69,99,84,58,30.18,30.04,5,1,10,0.02
2013-7-8,82,73,65,73,68,64,97,86,66,30.19,30.09,4,0,6,0.00
2013-7-9,84,73,66,75,70,66,100,90,68,30.18,30.06,3,1,6,0.11
2013-7-10,86,74,67,76,71,67,100,91,69,30.06,29.84,10,1,12,0.19
2013-7-11,75,68,61,67,63,60,100,86,68,30.15,29.93,5,2,9,0.01
2013-7-12,76,67,59,66,62,59,100,86,61,30.30,30.15,5,1,9,0.00
2013-7-13,78,70,62,72,66,61,99,90,77,30.40,30.28,4,1,8,0.00
2013-7-14,88,77,66,78,72,66,100,86,63,30.45,30.35,3,0,6,0.00
2013-7-15,86,77,68,75,72,66,100,85,66,30.41,30.33,5,1,8,0.00
2013-7-16,87,76,63,74,68,62,100,80,56,30.41,30.32,5,1,8,0.00
2013-7-17,92,79,65,78,72,64,100,81,53,30.36,30.19,4,1,6,0.00
2013-7-18,91,78,70,76,73,69,99,87,57,30.21,30.08,6,1,10,0.62
2013-7-19,93,80,69,78,73,68,99,81,52,30.08,29.86,4,1,6,0.21
2013-7-20,78,71,63,71,68,62,99,90,74,30.01,29.83,6,1,12,0.05
2013-7-21,76,69,60,68,63,60,100,83,63,30.13,30.01,4,1,6,0.05
2013-7-22,80,70,60,73,67,60,100,91,76,30.13,29.92,3,0,6,0.45
2013-7-23,82,72,67,71,68,66,100,89,61,29.92,29.73,5,1,9,0.36
2013-7-24,68,61,50,67,56,49,96,82,70,30.18,29.78,7,3,11,0.00
2013-7-25,72,59,44,57,51,44,100,79,52,30.27,30.18,4,1,8,0.00
2013-7-26,75,62,48,62,56,47,100,82,52,30.25,30.16,4,1,7,0.00
2013-7-27,79,67,53,69,63,52,100,86,65,30.17,30.01,6,2,11,0.25
2013-7-28,74,66,60,69,65,59,100,96,81,30.12,29.98,5,1,7,0.43
2013-7-29,70,62,56,62,58,56,100,88,62,30.28,30.12,4,0,5,0.00
2013-7-30,73,63,54,65,58,54,99,85,64,30.35,30.28,4,1,7,0.00
2013-7-31,78,66,52,65,59,52,100,82,51,30.31,30.10,3,0,6,0.00
2013-8-1,79,67,60,69,64,59,98,89,70,30.10,29.90,7,1,9,0.00
2013-8-2,74,64,56,66,61,56,100,92,65,30.05,29.97,8,0,8,0.20
2013-8-3,75,66,57,62,58,53,98,78,48,30.06,29.96,7,2,13,0.00
2013-8-4,69,62,53,62,56,52,97,82,60,30.17,30.05,8,3,14,0.18
2013-8-5,71,61,50,59,54,49,100,78,53,30.26,30.17,5,1,9,0.00
2013-8-6,77,63,49,63,56,48,100,81,47,30.22,30.17,5,1,9,0.00
2013-8-7,74,67,60,68,64,58,95,89,80,30.20,30.07,7,3,12,0.00
2013-8-8,83,72,65,75,68,63,100,90,71,30.11,30.02,4,1,7,0.76
2013-8-9,75,70,62,72,69,62,100,97,83,30.07,29.95,6,1,13,0.91
2013-8-10,72,65,54,62,57,52,98,77,54,30.24,30.05,7,3,13,0.00
2013-8-11,73,62,52,62,57,52,99,85,63,30.26,30.19,3,0,6,0.00
2013-8-12,76,66,54,69,61,54,100,86,63,30.20,30.02,2,0,6,0.00
2013-8-13,74,65,56,67,61,50,100,89,68,30.02,29.85,8,2,19,0.97
2013-8-14,65,58,52,56,52,48,92,80,60,30.23,29.98,10,4,17,0.00
2013-8-15,72,59,47,61,53,47,100,83,56,30.31,30.22,5,1,8,0.00
2013-8-16,72,61,50,59,53,50,100,79,50,30.36,30.27,5,1,6,0.00
2013-8-17,77,62,49,64,56,48,100,82,48,30.46,30.36,3,0,7,0.00
2013-8-18,76,65,56,65,60,55,100,86,58,30.40,30.26,2,0,6,0.00
2013-8-19,78,68,58,66,62,58,99,83,59,30.26,30.16,3,0,6,0.00
2013-8-20,80,68,55,68,61,55,100,83,54,30.28,30.19,4,0,6,0.00
2013-8-21,82,69,57,69,63,57,100,82,57,30.32,30.16,2,0,6,0.00
2013-8-22,85,71,61,72,66,60,97,86,60,30.18,30.00,5,1,7,0.26
2013-8-23,71,64,54,65,59,53,100,85,65,30.34,30.09,5,1,10,0.01
2013-8-24,73,60,48,60,54,47,100,82,51,30.50,30.34,2,0,6,0.00
2013-8-25,80,65,48,66,58,48,100,80,52,30.51,30.30,4,0,6,0.01
2013-8-26,80,69,63,72,66,60,100,90,74,30.34,30.05,6,1,8,0.63
2013-8-27,80,73,66,74,70,66,100,93,78,30.07,29.99,5,1,9,0.14
2013-8-28,81,72,66,74,70,66,100,93,71,30.05,29.96,4,0,9,0.02
2013-8-29,79,70,62,71,67,61,100,92,71,30.17,30.04,4,1,9,0.00
2013-8-30,84,70,58,73,65,58,100,87,51,30.15,29.91,3,0,4,0.01
2013-8-31,83,75,68,74,70,67,98,86,72,29.97,29.85,6,1,8,0.00
2013-9-1,80,73,67,73,69,66,100,90,73,29.97,29.88,4,1,8,0.80
2013-9-2,83,72,66,75,68,62,100,91,71,29.91,29.77,6,1,11,2.36
2013-9-3,67,63,55,61,58,55,100,86,73,30.07,29.90,6,2,12,0.00
2013-9-4,77,65,53,62,57,52,100,76,50,30.14,30.06,6,2,9,0.00
2013-9-5,67,59,47,61,52,43,97,78,59,30.35,30.08,7,2,11,0.04
2013-9-6,65,53,41,55,47,40,100,82,51,30.45,30.28,3,0,7,0.00
2013-9-7,68,60,48,61,55,46,96,84,64,30.28,30.03,2,0,4,0.00
2013-9-8,64,58,44,63,52,43,99,83,59,30.27,29.98,7,2,11,0.05
2013-9-9,73,57,40,60,50,40,100,80,53,30.35,30.17,6,2,9,0.00
2013-9-10,86,73,64,77,69,59,98,87,72,30.18,30.09,4,2,13,0.07
2013-9-11,91,77,68,78,73,68,99,87,60,30.18,30.05,4,1,8,0.07
2013-9-12,78,68,62,73,67,60,100,96,78,30.04,29.85,8,1,12,0.63
2013-9-13,62,55,50,60,54,49,98,95,91,30.12,29.84,8,4,15,0.04
2013-9-14,56,50,42,49,46,41,99,89,68,30.31,30.11,5,2,8,0.04
2013-9-15,65,53,41,57,49,40,100,88,64,30.35,30.23,4,0,6,0.00
2013-9-16,57,51,41,54,50,41,100,94,82,30.53,30.23,6,2,11,0.04
2013-9-17,61,47,34,50,42,33,100,84,54,30.66,30.49,3,0,6,0.00
2013-9-18,70,53,37,56,46,37,100,79,45,30.49,30.30,4,1,6,0.00
2013-9-19,75,59,46,59,51,44,98,77,40,30.31,30.18,3,1,5,0.00
2013-9-20,78,65,52,65,58,51,100,82,57,30.19,29.99,6,2,10,0.01
2013-9-21,69,62,56,63,59,55,100,92,81,29.99,29.75,8,2,15,0.80
2013-9-22,56,51,49,55,47,42,99,87,73,30.16,29.84,8,3,13,0.00
2013-9-23,55,48,40,45,43,39,98,82,67,30.29,30.15,8,2,12,0.00
2013-9-24,60,47,36,50,43,36,100,87,61,30.29,30.17,6,1,11,0.00
2013-9-25,65,50,37,54,46,37,100,86,52,30.19,30.10,3,0,5,0.00
2013-9-26,66,52,39,56,48,39,100,88,66,30.30,30.17,4,1,9,0.00
2013-9-27,66,53,41,56,50,40,100,89,65,30.43,30.29,2,1,5,0.01
2013-9-28,70,54,41,59,50,40,100,87,61,30.48,30.37,4,1,8,0.00
2013-9-29,71,57,44,56,50,44,100,82,52,30.37,30.19,6,1,10,0.00
2013-9-30,73,59,47,60,54,46,99,83,60,30.20,30.09,3,0,5,0.00
2013-10-1,72,60,52,62,56,51,100,88,57,30.17,30.08,3,0,5,0.00
2013-10-2,75,61,50,65,56,49,100,87,53,30.22,30.09,7,1,13,0.00
2013-10-3,71,58,46,61,53,45,100,84,51,30.29,30.17,3,0,5,0.00
2013-10-4,77,65,58,69,64,57,100,97,76,30.19,30.11,4,0,6,0.56
2013-10-5,69,63,61,67,63,61,100,98,89,30.23,30.16,4,0,5,0.20
2013-10-6,81,69,61,71,65,61,100,89,65,30.17,29.96,6,2,11,0.02
2013-10-7,71,61,51,66,57,45,99,86,66,30.16,29.76,8,3,12,0.76
2013-10-8,59,50,41,49,44,40,100,84,52,30.53,30.16,6,1,8,0.00
2013-10-9,65,49,36,51,42,35,100,82,40,30.59,30.47,5,1,10,0.00
2013-10-10,62,49,36,52,44,36,100,86,52,30.48,30.33,2,0,4,0.00
2013-10-11,62,54,47,56,50,45,100,89,60,30.32,30.26,4,0,5,0.06
2013-10-12,73,55,39,55,44,37,100,73,29,30.40,30.28,4,1,9,0.00
2013-10-13,70,60,52,56,53,50,96,77,59,30.46,30.40,6,2,10,0.00
2013-10-14,60,55,53,56,53,52,100,94,75,30.47,30.42,2,0,4,0.23
2013-10-15,68,58,53,59,55,52,100,91,69,30.44,30.16,4,1,7,0.01
2013-10-16,61,59,54,57,52,46,91,79,70,30.17,29.95,5,3,10,0.00
2013-10-17,64,55,45,57,51,44,100,88,59,30.04,29.80,7,1,10,0.55
2013-10-18,56,51,44,52,46,41,99,85,61,30.09,29.85,10,1,14,0.01
2013-10-19,60,52,44,49,45,41,95,78,56,30.09,29.82,8,2,13,0.04
2013-10-20,51,45,39,45,41,38,98,86,70,30.18,29.91,4,0,7,0.01
2013-10-21,64,54,40,44,41,38,98,64,39,30.20,29.99,7,2,18,0.00
2013-10-22,54,47,35,46,39,32,95,75,52,30.00,29.89,8,2,9,0.01
2013-10-23,48,40,34,40,36,33,97,86,64,30.00,29.83,9,1,13,0.01
2013-10-24,47,40,32,36,34,31,96,80,57,30.16,29.96,8,2,11,0.00
2013-10-25,47,40,35,39,36,34,97,84,66,30.35,30.17,7,2,11,0.04
2013-10-26,46,41,38,37,32,28,90,70,50,30.33,29.99,6,2,15,0.01
2013-10-27,46,42,38,38,35,32,89,77,62,30.25,29.99,7,2,11,0.00
2013-10-28,49,41,32,40,34,29,92,77,61,30.55,30.24,8,2,13,0.00
2013-10-29,43,36,26,33,30,25,98,80,58,30.65,30.49,3,0,7,0.00
2013-10-30,55,43,35,43,37,32,96,82,58,30.49,30.31,3,0,6,0.00
2013-10-31,61,52,35,58,50,34,99,95,89,30.31,29.67,8,3,15,0.27
2013-11-1,65,58,49,59,50,41,95,77,50,29.82,29.42,8,4,25,0.09
2013-11-2,54,46,37,47,44,36,97,90,67,30.08,29.77,7,1,13,0.11
2013-11-3,37,33,26,35,28,22,94,81,61,30.71,30.08,10,4,14,0.01
2013-11-4,41,32,20,27,21,18,98,69,41,30.85,30.70,5,1,8,0.00
2013-11-5,53,44,34,40,30,21,76,59,45,30.73,30.54,7,4,13,0.00
2013-11-6,59,53,45,50,46,40,87,77,64,30.55,30.01,8,5,19,0.00
2013-11-7,57,45,36,52,40,31,98,84,71,30.13,29.93,9,4,14,0.31
2013-11-8,40,36,33,33,30,27,90,78,61,30.40,30.10,11,4,15,0.00
2013-11-9,46,40,33,33,30,26,87,68,50,30.41,30.00,7,3,14,0.00
2013-11-10,47,44,39,42,35,29,92,73,58,30.29,29.96,13,5,20,0.02
2013-11-11,45,38,29,36,32,26,95,77,60,30.34,30.12,9,3,15,0.02
2013-11-12,30,27,25,28,22,19,95,81,64,30.55,30.24,11,7,15,0.00
2013-11-13,35,28,20,25,21,15,91,74,62,30.63,30.32,7,3,12,0.02
2013-11-14,50,39,27,23,19,15,69,46,27,30.34,30.24,5,1,10,0.00
2013-11-15,56,45,34,28,23,20,61,44,27,30.33,30.24,3,1,9,0.00
2013-11-16,58,47,31,42,35,24,90,65,45,30.44,30.28,4,1,11,0.00
2013-11-17,57,53,47,54,49,41,95,89,78,30.29,29.76,9,6,17,0.06
2013-11-18,58,47,36,56,36,26,95,67,50,30.03,29.57,11,5,20,0.08
2013-11-19,36,34,30,31,27,24,90,76,66,30.61,30.03,12,6,18,0.00
2013-11-20,37,28,19,24,21,15,95,77,44,30.79,30.60,5,1,6,0.01
2013-11-21,44,36,28,37,25,13,93,66,50,30.72,30.48,8,3,14,0.02
2013-11-22,48,42,34,46,41,30,99,95,82,30.48,30.14,14,2,26,0.16
2013-11-23,36,29,18,30,23,10,91,78,59,30.31,30.11,14,7,21,0.00
2013-11-24,22,18,15,16,12,10,92,80,63,30.59,30.29,14,8,22,0.00
2013-11-25,32,25,16,20,14,12,85,64,45,30.62,30.36,7,3,12,0.00
2013-11-26,34,32,29,34,28,13,98,87,47,30.38,29.95,4,2,9,0.01
2013-11-27,34,31,23,34,29,18,99,93,81,30.02,29.74,13,7,23,0.06
2013-11-28,25,22,19,21,16,13,95,79,63,30.63,30.02,13,5,16,0.00
2013-11-29,26,19,6,21,15,3,96,85,61,30.96,30.63,7,2,10,0.01
2013-11-30,32,20,4,22,12,1,95,74,53,30.95,30.46,9,4,15,0.00
2013-12-1,39,33,30,33,27,22,97,80,66,30.46,30.16,6,2,11,0.06
2013-12-2,40,35,33,35,33,32,98,91,81,30.16,30.03,5,0,6,0.02
2013-12-3,38,32,25,33,30,24,97,91,78,30.19,30.06,2,0,3,0.00
2013-12-4,51,39,26,43,36,25,100,91,71,30.25,30.15,5,1,7,0.02
2013-12-5,56,51,42,52,48,41,97,90,86,30.16,29.97,8,4,14,0.12
2013-12-6,42,34,28,41,31,27,98,91,82,30.42,30.10,7,2,11,0.30
2013-12-7,31,27,22,27,20,14,95,75,60,30.73,30.39,10,5,13,0.01
2013-12-8,26,23,18,18,16,14,89,76,66,30.78,30.59,5,1,7,0.00
2013-12-23,40,34,28,40,30,22,99,84,68,30.41,30.16,10,5,15,0.03
2013-12-24,28,21,12,23,17,8,94,86,73,30.64,30.34,8,3,14,0.00
2013-12-25,23,14,3,14,9,0,92,79,67,30.74,30.48,7,3,10,0.00
2013-12-26,33,27,22,27,22,14,94,82,69,30.48,30.28,8,3,16,0.04
2013-12-27,32,28,20,27,23,16,89,82,70,30.48,30.35,8,1,12,0.01
2013-12-28,45,38,30,35,30,26,86,73,59,30.34,30.14,5,1,13,0.00
2013-12-29,44,37,33,38,33,28,99,85,55,30.15,29.81,6,1,9,0.45
2013-12-30,37,30,24,34,28,21,95,91,86,30.14,29.88,11,5,13,0.00